Temp
6 5 5 5 5 6 6 6 6 5 6 6 6 6 6 5 5 5 4 4 5 4 4 4 4 4 4 4 4 4 4 3 3 3 3 3 2 2 2 2 3 3 3
5 6 5 5 5 5 5 6 6 6 5 5 5 6 6 5 5 5 4 4 4 4 4 4 4 4 4 4 4 4 4 3 3 3 3 3 2 2 2 2 3 3 3
5 6 5 5 5 5 5 5 5 6 6 5 5 5 6 6 5 5 5 4 4 4 4 4 4 4 4 4 4 4 4 3 3 3 3 3 2 2 2 2 2 2 3
5 5 5 6 5 5 6 5 5 5 6 6 5 5 5 6 6 5 5 4 4 4 4 4 4 4 4 4 4 4 4 4 4 4 3 3 3 2 2 3 2 2 2
5 5 5 5 5 5 4 4 5 5 6 6 6 5 5 6 6 6 5 5 4 4 5 5 5 5 4 4 4 4 4 4 4 4 4 3 3 3 2 2 2 1 2
5 5 5 5 5 5 5 4 5 5 5 5 6 5 5 5 5 6 6 5 5 5 4 5 5 5 5 4 4 4 4 4 4 4 4 3 3 3 2 2 1 1 2
5 5 5 5 4 5 5 5 4 4 4 4 4 5 4 5 5 5 5 5 5 5 5 5 5 5 6 5 5 5 4 4 4 4 3 3 3 3 2 2 2 2 2
5 5 5 5 5 5 5 5 4 4 4 4 3 4 4 4 5 6 6 6 6 5 6 5 6 6 5 5 5 5 5 4 4 4 4 4 3 3 3 3 2 2 2
4 4 5 5 5 5 5 5 5 4 4 4 3 3 2 4 6 6 6 6 6 6 6 6 6 6 5 5 5 5 5 5 5 4 4 4 4 4 3 3 2 2 2
4 4 4 4 4 5 4 4 5 4 3 3 3 3 2 2 4 5 6 6 5 6 6 6 6 6 6 5 5 5 5 5 5 4 4 4 4 4 4 4 3 2 2
4 4 3 3 3 3 4 4 3 3 3 3 3 3 3 2 2 3 5 5 5 6 6 6 5 6 5 5 5 5 5 5 4 4 4 4 4 4 4 4 4 3 3
2 2 3 3 2 2 3 4 3 2 2 3 3 2 2 2 2 3 3 4 5 5 5 5 5 5 5 5 5 5 4 4 4 4 4 3 3 3 3 3 3 3 3
0 -0 -0 -0 0 1 1 2 2 2 2 2 2 2 3 3 2 2 2 3 3 4 5 5 5 5 5 4 5 5 4 4 4 3 3 3 3 3 3 3 2 2 3
-0 -1 -1 -1 -1 -1 -0 1 1 1 2 2 1 1 2 2 2 2 1 2 3 3 4 4 4 4 4 4 4 4 4 4 3 3 3 3 3 3 2 2 2 2 1
-1 -0 -1 -1 -1 -1 -1 -2 1 1 1 1 1 0 1 2 2 2 2 2 2 3 3 3 3 3 3 3 3 3 3 3 3 3 3 3 3 2 2 2 2 2 1
-2 -3 -3 -4 -3 -3 -2 -2 -1 -1 0 0 1 1 1 1 1 1 1 1 0 1 2 2 3 3 3 3 3 3 3 3 3 3 3 3 2 2 2 2 2 1 1
-3 -4 -5 -4 -3 -4 -2 -2 -2 -1 -1 0 0 1 1 2 2 0 0 1 1 0 1 1 2 2 2 2 3 2 3 3 3 3 3 3 3 3 3 2 2 2 2
-6 -4 -4 -3 -3 -3 -3 -2 -1 -2 -1 -1 0 -0 -0 0 0 -0 2 2 2 0 0 0 1 1 1 2 2 2 2 3 2 2 3 3 3 2 2 2 1 1 2
-6 -7 -5 -3 -2 -4 -3 -2 -1 -1 -1 -0 0 -0 -0 1 1 0 1 0 1 0 -0 0 -0 0 0 0 1 1 1 1 2 1 2 2 2 2 2 1 2 1 1
-4 -5 -6 -6 -6 -6 -5 -4 -2 -2 -1 -2 -1 -1 -0 -1 -0 -0 -1 -1 -1 -1 -1 -1 -1 -1 -0 -0 -0 0 0 0 0 1 1 1 1 1 2 1 1 1 1
-5 -5 -5 -5 -6 -8 -8 -7 -6 -4 -4 -4 -3 -2 -2 -2 -2 -1 -2 -2 -2 -1 -1 -1 -1 -2 -2 -1 -1 -1 -1 -1 -1 -0 1 1 2 2 1 1 1 0 0
-6 -6 -6 -6 -5 -5 -5 -5 -4 -4 -4 -3 -3 -4 -3 -3 -3 -4 -4 -4 -4 -2 -2 -2 -3 -4 -4 -3 -3 -2 -2 -1 -1 1 0 1 1 1 1 0 0 -0 -0
-6 -6 -6 -6 -6 -5 -5 -5 -5 -4 -4 -4 -3 -4 -3 -3 -3 -2 -2 -2 -2 -2 -2 -2 -2 -2 -2 -2 -1 -1 -1 -1 -1 0 1 0 0 -0 -0 -0 0 0 0
-6 -6 -5 -6 -6 -5 -5 -5 -5 -5 -5 -4 -4 -3 -3 -3 -3 -3 -3 -3 -2 -2 -2 -2 -2 -2 -2 -2 -1 -1 -1 -1 -1 -0 0 1 0 0 -0 -0 0 0 0
-6 -6 -6 -6 -6 -5 -5 -5 -5 -5 -4 -4 -4 -4 -4 -4 -4 -4 -4 -3 -3 -3 -3 -3 -2 -2 -2 -2 -2 -1 -1 -1 -1 -1 0 0 0 1 0 -0 0 -0 -0
-7 -7 -7 -7 -6 -6 -6 -5 -5 -5 -5 -4 -4 -4 -4 -4 -4 -4 -4 -4 -4 -4 -4 -4 -4 -3 -3 -3 -3 -2 -2 -2 -2 -2 -1 -0 -1 -0 1 1 0 -0 -0
Height
3118 3118 3120 3122 3123 3124 3126 3127 3129 3131 3132 3134 3134 3135 3136 3138 3139 3139 3140 3141 3143 3144 3144 3145 3146 3147 3148 3148 3149 3150 3151 3151 3152 3154 3155 3154 3156 3158 3158 3159 3161 3161 3162
3109 3109 3110 3111 3113 3115 3117 3118 3121 3123 3124 3126 3127 3128 3130 3132 3133 3134 3135 3136 3138 3139 3140 3141 3142 3143 3144 3145 3146 3147 3148 3148 3149 3151 3151 3152 3153 3154 3156 3157 3158 3158 3158
3095 3098 3100 3100 3103 3105 3107 3109 3111 3114 3115 3116 3118 3121 3123 3125 3127 3129 3129 3130 3131 3134 3135 3137 3138 3140 3141 3142 3143 3144 3144 3145 3146 3148 3149 3149 3150 3151 3152 3153 3154 3154 3155
3083 3082 3085 3089 3092 3093 3095 3098 3101 3102 3105 3107 3109 3112 3115 3117 3120 3122 3124 3125 3125 3127 3130 3131 3133 3134 3136 3138 3138 3140 3141 3142 3143 3144 3145 3146 3147 3148 3149 3150 3150 3150 3151
3072 3070 3070 3074 3080 3081 3083 3087 3089 3089 3092 3095 3098 3102 3105 3108 3111 3114 3117 3119 3120 3121 3124 3126 3127 3129 3130 3132 3134 3136 3137 3138 3139 3140 3142 3143 3144 3145 3146 3146 3146 3146 3147
3059 3058 3057 3059 3063 3066 3069 3073 3076 3076 3080 3082 3085 3090 3095 3099 3101 3103 3108 3112 3114 3115 3116 3120 3120 3122 3124 3126 3129 3131 3132 3134 3135 3136 3137 3138 3140 3141 3142 3143 3143 3143 3144
3045 3044 3044 3045 3048 3050 3056 3060 3062 3063 3062 3073 3072 3076 3082 3088 3091 3093 3097 3102 3106 3108 3109 3112 3114 3117 3119 3120 3123 3126 3127 3129 3131 3132 3133 3133 3135 3136 3137 3138 3139 3140 3141
3032 3029 3029 3032 3034 3035 3041 3045 3048 3051 3050 3046 3047 3061 3067 3075 3078 3082 3086 3092 3098 3101 3102 3104 3108 3111 3113 3115 3117 3119 3123 3125 3127 3127 3128 3129 3130 3131 3132 3133 3134 3135 3137
3015 3015 3013 3016 3019 3020 3024 3030 3034 3036 3037 3048 3048 3043 3048 3061 3072 3071 3078 3084 3089 3093 3096 3098 3102 3105 3107 3110 3112 3113 3116 3119 3121 3122 3123 3124 3126 3126 3127 3129 3129 3129 3131
3001 3000 3000 3000 3003 3006 3007 3012 3018 3021 3025 3034 3041 3044 3041 3049 3059 3063 3069 3077 3082 3086 3090 3093 3095 3099 3101 3104 3107 3109 3110 3112 3114 3116 3118 3118 3119 3120 3121 3122 3124 3124 3124
2988 2988 2987 2986 2988 2991 2993 2997 3001 3006 3014 3024 3028 3037 3022 3028 3046 3055 3061 3069 3074 3079 3082 3085 3088 3092 3094 3097 3100 3103 3104 3106 3108 3109 3109 3111 3112 3113 3115 3116 3117 3118 3118
2976 2975 2975 2975 2975 2978 2980 2985 2988 2993 3001 3010 3018 3021 3024 3029 3038 3046 3055 3061 3066 3070 3074 3077 3081 3085 3089 3090 3093 3096 3098 3099 3101 3102 3103 3105 3106 3107 3107 3108 3109 3111 3111
2965 2964 2963 2964 2963 2964 2968 2973 2976 2980 2989 2998 3005 3011 3018 3021 3032 3038 3046 3052 3055 3061 3064 3068 3072 3077 3080 3082 3085 3088 3091 3092 3093 3094 3095 3097 3098 3100 3101 3102 3102 3103 3104
2960 2957 2956 2956 2955 2956 2958 2961 2967 2970 2979 2986 2993 3000 3009 3011 3020 3024 3033 3041 3044 3048 3054 3059 3064 3068 3070 3072 3076 3079 3081 3083 3085 3087 3087 3089 3090 3091 3092 3093 3094 3094 3094
2958 2955 2951 2950 2950 2950 2951 2952 2957 2963 2968 2976 2984 2992 2998 3005 3010 3016 3021 3026 3033 3038 3043 3050 3055 3058 3059 3061 3063 3066 3070 3074 3076 3077 3078 3079 3080 3081 3081 3082 3084 3084 3085
2955 2950 2945 2944 2945 2944 2943 2947 2953 2957 2965 2972 2978 2984 2989 2996 3000 3006 3010 3008 3015 3026 3033 3038 3040 3042 3048 3051 3054 3057 3059 3062 3066 3067 3068 3068 3069 3071 3070 3070 3072 3074 3075
2949 2944 2942 2942 2943 2942 2941 2941 2948 2953 2960 2965 2972 2977 2981 2985 2990 2992 2998 3004 3004 3007 3018 3023 3026 3031 3035 3039 3043 3048 3050 3052 3055 3057 3058 3059 3060 3061 3062 3062 3062 3063 3065
2949 2942 2939 2939 2939 2940 2938 2939 2946 2950 2955 2959 2965 2970 2974 2976 2977 2979 2983 2991 2995 2997 3006 3010 3013 3018 3024 3028 3032 3035 3038 3041 3043 3045 3046 3049 3050 3051 3053 3052 3053 3053 3053
2961 2954 2944 2944 2944 2941 2943 2939 2941 2948 2949 2952 2956 2964 2967 2967 2968 2972 2976 2981 2985 2988 2991 2994 3000 3003 3009 3015 3018 3022 3025 3028 3029 3034 3036 3037 3038 3040 3040 3040 3040 3041 3043
2974 2969 2960 2955 2953 2948 2948 2951 2953 2950 2949 2951 2943 2950 2956 2960 2964 2968 2972 2973 2976 2979 2982 2987 2985 2992 2995 2999 3005 3009 3012 3014 3013 3014 3022 3024 3025 3026 3027 3028 3029 3029 3028
2980 2975 2970 2968 2964 2959 2956 2953 2949 2950 2948 2954 2948 2948 2954 2956 2962 2966 2969 2971 2974 2975 2976 2979 2981 2983 2987 2989 2991 2993 2998 3001 3003 3003 3007 3008 3012 3013 3014 3015 3013 3012 3013
2987 2984 2980 2977 2973 2968 2962 2962 2964 2961 2961 2960 2959 2963 2959 2960 2963 2967 2969 2972 2976 2975 2976 2977 2978 2979 2980 2984 2986 2986 2987 2987 2987 2991 2996 2997 2998 2999 2999 2998 2995 2997 2999
2993 2990 2986 2983 2980 2977 2974 2972 2968 2969 2969 2968 2967 2968 2965 2966 2967 2968 2970 2973 2974 2977 2976 2977 2979 2979 2979 2980 2981 2981 2983 2983 2980 2981 2986 2989 2987 2986 2985 2983 2982 2983 2985
2996 2993 2990 2988 2987 2984 2980 2976 2975 2974 2973 2972 2973 2971 2970 2973 2970 2972 2972 2973 2974 2975 2974 2975 2975 2976 2977 2977 2975 2975 2974 2975 2976 2972 2972 2975 2975 2977 2976 2973 2971 2971 2970
2997 2994 2991 2988 2985 2983 2980 2979 2979 2977 2975 2973 2972 2971 2972 2971 2973 2971 2971 2970 2969 2971 2970 2969 2969 2969 2970 2970 2969 2967 2965 2965 2966 2965 2960 2956 2963 2962 2965 2963 2960 2959 2957
3000 2996 2994 2991 2988 2985 2983 2981 2979 2977 2976 2974 2973 2972 2973 2973 2973 2973 2970 2970 2968 2967 2965 2964 2962 2962 2962 2959 2958 2956 2955 2954 2953 2954 2949 2947 2945 2945 2945 2947 2947 2946 2945
Wind_Speed
41 45 45 43 42 39 37 33 31 28 27 27 28 26 25 25 23 23 22 20 20 20 20 18 17 16 14 14 13 13 13 13 14 12 10 16 17 18 16 15 16 14 16
43 46 47 49 46 44 41 39 36 32 30 31 31 30 27 27 26 25 24 23 22 22 21 20 19 18 16 16 15 15 14 13 13 13 13 13 18 21 19 17 16 17 14
47 46 50 49 51 47 45 45 42 38 38 35 34 34 31 29 28 27 27 26 24 24 24 24 22 21 19 19 17 16 16 15 15 13 15 13 14 17 18 20 21 17 17
45 48 49 53 52 53 53 48 48 44 43 42 37 37 35 32 30 29 30 29 27 26 24 25 25 25 25 22 20 19 17 16 15 16 15 14 14 14 17 16 16 20 20
46 48 50 49 52 55 56 55 40 52 49 47 43 40 38 36 33 32 31 32 30 28 28 26 25 25 26 25 22 22 21 19 17 16 16 16 16 16 15 15 15 14 15
48 49 50 50 47 54 58 59 59 45 59 49 47 44 42 40 37 35 33 33 33 31 29 28 26 25 24 24 26 26 22 22 20 18 17 17 16 17 17 15 15 13 14
47 52 53 51 51 50 51 59 61 60 54 57 55 49 46 44 43 39 36 35 36 34 32 30 26 24 23 24 22 22 23 23 21 20 20 19 19 18 18 18 17 19 19
44 49 53 53 53 54 52 51 61 61 63 47 67 49 51 48 47 42 41 38 37 37 34 32 27 24 21 22 22 21 20 20 21 20 19 21 21 21 21 20 20 21 22
39 41 47 49 52 55 56 56 56 62 63 62 58 44 60 52 46 46 41 41 39 37 34 31 28 26 24 23 22 22 21 19 19 21 21 21 21 21 21 22 22 23 24
31 35 40 43 47 52 54 55 61 61 64 65 67 55 62 47 47 46 42 41 41 38 34 32 29 28 26 25 24 23 22 22 22 21 21 22 21 21 20 20 23 24 25
37 39 38 43 42 43 47 45 52 63 61 59 65 59 41 35 36 42 44 42 43 39 37 34 32 32 30 28 28 27 25 25 24 24 24 24 23 23 22 23 23 25 25
37 38 38 41 43 43 43 43 41 53 60 54 62 58 56 63 51 47 44 45 41 41 40 37 35 34 32 31 31 30 29 28 27 28 29 27 26 26 28 27 28 28 28
25 25 25 29 38 40 37 39 36 42 46 52 53 59 47 43 50 48 50 51 47 42 40 39 37 37 35 35 34 34 34 32 32 32 32 32 30 29 29 32 31 32 33
27 28 22 19 23 30 31 30 33 36 39 43 43 37 39 43 47 49 54 51 52 49 43 36 36 39 38 38 37 37 39 38 36 35 35 36 34 32 32 33 36 33 38
26 27 22 19 19 26 29 23 29 33 38 36 40 37 39 46 45 54 56 49 52 49 47 43 41 38 37 37 38 38 40 40 39 38 39 38 36 36 34 35 37 40 37
14 17 12 15 11 23 22 19 23 32 34 32 32 38 40 41 48 53 56 63 56 49 47 45 46 45 44 45 45 44 43 43 44 42 42 41 39 40 39 39 39 39 40
22 17 8 16 16 15 15 19 22 25 25 24 25 31 37 40 42 44 51 45 29 60 51 49 48 45 44 45 47 46 48 46 47 47 47 45 42 42 42 39 36 36 38
39 28 18 14 16 10 23 27 16 16 22 24 26 29 33 32 39 40 31 40 33 38 58 62 46 53 51 44 41 42 40 50 48 50 48 47 46 41 43 38 42 39 35
47 38 23 13 23 17 17 16 18 17 15 22 30 24 31 36 32 35 44 37 31 29 30 57 66 45 48 53 50 48 47 52 67 55 47 46 43 42 42 43 39 45 50
38 42 43 35 26 27 16 15 21 20 24 16 36 29 23 18 15 18 19 17 25 37 43 39 32 32 35 55 54 53 50 53 38 35 42 42 43 47 46 47 45 45 48
32 33 34 34 37 40 41 35 32 24 23 21 20 19 16 12 10 7 5 2 8 14 20 25 21 22 28 36 38 38 40 39 35 32 35 40 45 49 52 53 53 54 56
26 26 27 26 27 29 31 29 27 27 24 23 24 19 22 21 18 14 11 8 5 6 7 9 9 10 11 12 14 17 24 30 33 38 39 39 44 44 45 45 46 47 46
23 23 24 24 24 23 23 21 23 20 18 17 17 16 16 13 12 9 7 4 4 4 4 6 8 11 13 15 18 20 21 22 23 29 32 29 31 31 34 38 44 46 44
22 22 23 23 21 21 21 21 19 19 19 17 15 14 13 11 10 7 6 5 5 8 8 10 13 14 16 19 20 23 24 25 27 30 33 32 33 33 33 36 39 39 43
21 22 23 23 23 22 22 21 19 17 17 16 15 14 14 13 11 10 10 11 11 12 13 14 16 19 21 23 25 28 30 32 32 34 39 42 38 41 38 39 40 41 44
21 23 22 22 21 21 20 19 18 18 16 15 15 15 14 12 11 11 11 13 14 15 17 19 21 23 24 26 28 29 31 34 36 36 41 43 44 45 46 45 45 45 47
Wind_Direction
254 249 248 249 250 250 250 250 250 251 256 259 258 257 257 256 251 248 247 246 245 247 246 242 243 243 241 241 240 238 235 236 235 231 240 229 217 224 227 235 240 251 248
263 259 252 246 247 248 247 247 247 246 246 251 254 254 252 253 251 248 247 245 247 247 242 244 242 246 246 237 237 234 235 234 236 244 251 241 235 233 241 252 254 253 258
271 262 257 253 247 245 245 245 244 244 243 241 247 249 249 249 249 247 246 245 243 247 246 243 251 245 247 242 234 234 234 230 234 234 238 239 235 233 241 255 254 254 246
270 268 261 253 253 250 245 243 245 242 245 243 239 245 247 247 248 247 245 243 242 246 247 242 253 252 245 241 234 231 230 235 235 239 237 236 236 239 239 255 257 256 250
267 265 265 261 251 251 251 249 248 243 240 243 240 239 243 243 243 245 244 244 242 242 248 247 253 246 239 237 239 237 232 232 236 237 238 238 238 235 239 257 272 246 242
266 263 262 261 258 250 246 249 248 249 242 237 243 237 239 241 240 240 242 244 243 242 244 248 247 247 235 235 236 238 237 236 235 237 236 238 241 241 243 250 253 246 240
263 261 259 259 256 255 250 246 244 249 247 239 237 234 234 237 237 236 237 238 242 240 240 244 245 239 230 228 229 232 233 236 236 237 238 241 243 245 246 248 251 248 246
264 261 259 258 256 254 253 250 245 245 250 252 233 231 231 233 233 231 233 234 238 241 237 238 236 231 226 225 220 225 231 233 231 233 238 242 246 249 249 247 247 249 252
275 265 263 260 254 253 249 249 249 246 247 249 244 251 225 233 232 234 233 236 236 238 237 234 232 228 222 224 222 222 225 229 234 234 234 234 240 246 250 252 249 248 250
280 273 268 267 258 253 252 247 244 245 243 242 245 247 245 232 236 236 232 237 237 234 235 232 228 229 228 228 229 226 225 227 229 230 236 236 240 247 250 252 256 252 251
279 276 269 260 258 252 250 253 245 240 242 239 239 241 239 213 230 239 240 237 241 236 232 231 228 229 228 230 234 235 232 234 235 237 235 237 240 247 257 263 257 258 256
281 277 271 262 258 252 251 253 252 242 240 238 240 240 247 250 237 237 247 243 240 239 237 233 230 229 232 233 235 237 234 235 240 243 244 243 245 253 260 264 261 261 259
290 292 289 268 256 253 244 245 249 241 240 239 240 243 246 245 235 227 237 246 248 244 241 233 228 229 231 233 235 235 236 237 240 243 246 246 250 259 266 268 264 266 263
298 302 300 286 267 254 241 237 241 235 232 237 242 240 240 221 234 224 231 240 246 245 243 238 233 231 233 235 236 234 234 236 240 245 248 249 254 261 264 264 261 268 263
303 289 284 276 256 255 243 231 226 225 224 230 234 228 230 234 238 233 233 232 239 243 244 239 238 234 236 234 233 234 236 238 241 246 248 249 253 260 258 262 268 265 263
300 329 308 260 250 256 243 212 220 223 219 223 234 239 232 241 242 244 248 236 231 234 241 237 236 239 239 239 239 236 235 238 241 243 248 249 249 255 260 258 264 264 258
349 347 321 276 250 241 242 235 211 197 220 220 231 235 241 246 247 245 249 235 248 227 230 235 237 238 241 242 242 244 244 241 245 247 250 253 253 256 263 264 260 255 263
21 4 341 323 286 256 241 202 192 192 215 225 227 237 230 243 244 247 245 244 251 230 228 236 240 235 238 244 248 250 252 250 245 249 249 254 251 259 260 265 263 258 264
40 35 11 312 284 285 198 185 163 203 199 204 215 221 232 223 222 236 244 209 214 217 236 237 236 237 235 240 245 247 253 253 252 247 245 249 251 249 258 257 258 256 260
45 38 48 60 74 87 106 184 181 175 187 162 164 162 178 192 209 228 226 226 234 246 242 242 239 239 238 242 239 245 251 242 246 234 242 249 250 252 254 254 256 257 258
44 48 51 53 49 51 55 58 64 80 81 96 103 116 134 130 144 179 207 176 214 205 206 219 217 221 235 236 236 232 233 240 259 244 252 262 260 258 261 263 261 259 261
46 48 54 54 54 59 61 57 64 59 57 62 65 75 82 83 80 77 69 67 21 20 13 354 334 323 307 305 291 279 271 262 254 247 264 264 263 262 261 261 263 260 259
46 47 48 51 49 56 59 61 59 57 58 60 59 53 59 66 69 70 66 35 8 326 313 293 285 284 276 271 274 275 271 269 267 262 261 261 262 264 265 266 263 263 262
38 38 37 42 46 48 54 50 49 49 48 51 49 41 44 48 53 40 24 359 330 312 305 293 286 285 281 279 275 274 273 272 274 272 268 265 266 265 262 263 265 268 267
31 31 32 30 29 29 29 30 34 37 35 30 30 29 25 21 11 9 358 342 330 316 309 301 296 293 289 285 283 281 281 280 277 275 273 275 270 268 265 264 264 263 262
22 22 19 21 21 19 19 17 15 15 13 8 9 7 4 357 352 345 335 327 323 318 313 308 305 300 298 295 292 288 285 283 282 280 277 277 276 274 269 265 264 263 264